Weather History for Lincoln, NE

Change the Weather History Date:

Sunday, January 30, 2011

  Actual Average Record
Temperature  
Mean Temperature 16 °F 25 °F  
Max Temperature 21 °F 36 °F 70 °F (2012)
Min Temperature 11 °F 14 °F -16 °F (1918)
Degree Days  
Heating Degree Days 49 40  
Month to date heating degree days 1384 1216  
Since 1 July heating degree days 3739 3661  
Cooling Degree Days 0 0  
Month to date cooling degree days 0 0  
Year to date cooling degree days 0 0  
Moisture  
Dew Point 10 °F    
Average Humidity 81    
Maximum Humidity 88    
Minimum Humidity 73    
Precipitation  
Precipitation T in 0.02 in 0.34 in (1938)
Month to date precipitation 1.13 0.61  
Year to date precipitation 1.13 0.61  
Snow  
Snow T in 0.20 in - ()
Month to date snowfall 14.4 5.2  
Since 1 July snowfall 16.1 13.9  
Snow Depth T in    
Sea Level Pressure  
Sea Level Pressure 30.33 in    
Wind  
Wind Speed 11 mph (NNE)    
Max Wind Speed 22 mph    
Max Gust Speed 24 mph    
Visibility 8 miles    
Events Snow    
T = Trace of Precipitation, MM = Missing Value Source: NWS Daily Summary

Daily Weather History Graph

Daily Weather History Graph

Search for Another Location

Airport:

Trip Planner

Search our weather history database for the weather conditions in past years. The results will help you decide how hot, cold, wet, or windy it might be!

Date:

Astronomy

Jan. 30, 2011 Rise Set
Actual Time 7:39 AM CST 5:41 PM CST
Civil Twilight 7:10 AM CST 6:10 PM CST
Nautical Twilight 6:37 AM CST 6:43 PM CST
Astronomical Twilight 6:05 AM CST 7:16 PM CST
Moon 5:13 AM CST (1/30) 2:35 PM CST (1/30)
Length of Visible Light 11h 00m
Length of Day
10h 02m
Waning Crescent, 11% of the Moon is Illuminated
Jan 30
Waning Crescent
Feb 2
New
Feb 11
First Quarter
Feb 18
Full
Feb 24
Last Quarter

Hourly Weather History & Observations

Time (CST) Temp. Windchill Dew Point Humidity Pressure Visibility Wind Dir Wind Speed Gust Speed Precip Events Conditions
12:54 AM 19.4 °F 3.6 °F 14.0 °F 80% 30.23 in 10.0 mi North 19.6 mph - N/A   Overcast
1:35 AM 17.6 °F 4.3 °F 12.2 °F 79% 30.24 in 10.0 mi North 12.7 mph - N/A   Scattered Clouds
1:54 AM 16.0 °F 1.7 °F 12.0 °F 84% 30.29 in 10.0 mi North 13.8 mph - N/A   Clear
2:54 AM 15.1 °F 2.5 °F 10.9 °F 84% 30.32 in 10.0 mi North 10.4 mph - N/A   Clear
3:54 AM 15.1 °F 0.5 °F 10.0 °F 80% 30.31 in 10.0 mi North 13.8 mph - N/A   Clear
4:54 AM 12.9 °F -2.8 °F 9.0 °F 84% 30.32 in 10.0 mi North 15.0 mph - N/A   Clear
5:54 AM 12.9 °F -1.6 °F 8.1 °F 81% 30.36 in 10.0 mi North 12.7 mph - N/A   Mostly Cloudy
6:54 AM 12.0 °F -2.0 °F 7.0 °F 80% 30.38 in 10.0 mi North 11.5 mph - N/A   Overcast
7:54 AM 12.0 °F -2.7 °F 7.0 °F 80% 30.38 in 10.0 mi North 12.7 mph - N/A   Overcast
8:54 AM 12.0 °F -2.7 °F 8.1 °F 84% 30.39 in 6.0 mi NNE 12.7 mph - N/A   Overcast
9:54 AM 12.0 °F -1.3 °F 7.0 °F 80% 30.40 in 6.0 mi NNE 10.4 mph - 0.00 in   Haze
10:54 AM 15.1 °F 2.5 °F 8.1 °F 74% 30.40 in 5.0 mi North 10.4 mph - 0.00 in Snow Light Snow
11:30 AM 15.8 °F 6.1 °F 8.6 °F 73% 30.34 in 4.0 mi ENE 6.9 mph - 0.00 in Snow Light Snow
11:54 AM 15.1 °F 5.2 °F 8.1 °F 74% 30.39 in 3.0 mi NE 6.9 mph - 0.00 in Snow Light Snow
12:54 PM 17.1 °F 6.6 °F 10.0 °F 74% 30.37 in 5.0 mi ENE 8.1 mph - 0.00 in Snow Light Snow
1:08 PM 17.6 °F 8.2 °F 10.4 °F 73% 30.30 in 6.0 mi NE 6.9 mph - 0.00 in   Haze
1:54 PM 18.0 °F 8.7 °F 12.0 °F 78% 30.34 in 5.0 mi ENE 6.9 mph - 0.00 in   Haze
2:54 PM 18.0 °F 7.7 °F 12.0 °F 78% 30.32 in 7.0 mi ENE 8.1 mph - N/A   Overcast
3:54 PM 16.0 °F 3.6 °F 10.9 °F 81% 30.32 in 7.0 mi NE 10.4 mph - N/A   Overcast
4:54 PM 15.1 °F 2.5 °F 10.0 °F 80% 30.33 in 10.0 mi NE 10.4 mph - N/A   Overcast
5:54 PM 15.1 °F 2.5 °F 10.0 °F 80% 30.32 in 10.0 mi NE 10.4 mph - N/A   Overcast
6:54 PM 14.0 °F -0.2 °F 9.0 °F 80% 30.34 in 10.0 mi NNE 12.7 mph - N/A   Overcast
7:54 PM 14.0 °F 0.5 °F 9.0 °F 80% 30.33 in 10.0 mi NNE 11.5 mph - N/A   Overcast
8:54 PM 14.0 °F -0.2 °F 10.0 °F 84% 30.34 in 8.0 mi NE 12.7 mph - N/A   Overcast
9:54 PM 15.1 °F 1.8 °F 12.0 °F 88% 30.33 in 7.0 mi NE 11.5 mph - N/A   Overcast
10:54 PM 15.1 °F 2.5 °F 12.9 °F 91% 30.32 in 5.0 mi NE 10.4 mph - N/A   Overcast
11:54 PM 16.0 °F 3.6 °F 14.0 °F 92% 30.31 in 5.0 mi NE 10.4 mph - N/A   Overcast